| time (UTC) | temp C | wind direction | speed KPH | gust KPH | rain 1hr cm | rain 24hr cm | rain mn cm | humidity % | barometer mb |
| 20260505052716 | 14 | 221 | 6.4 | 19.3 | 0.00 | 0.00 | 0.00 | 61 | 1008.2 |
| 20260505051719 | 14 | 199 | 8.0 | 17.7 | 0.00 | 0.00 | 0.00 | 60 | 1008.3 |
| 20260505051216 | 14 | 203 | 4.8 | 12.9 | 0.00 | 0.00 | 0.00 | 60 | 1008.3 |
| 20260505050716 | 14 | 226 | 4.8 | 9.7 | 0.00 | 0.00 | 0.00 | 60 | 1008.3 |
| 20260505050217 | 14 | 169 | 6.4 | 12.9 | 0.00 | 0.00 | 0.00 | 59 | 1008.3 |
| 20260505041713 | 14 | 183 | 4.8 | 12.9 | 0.00 | 0.00 | 0.00 | 57 | 1008.3 |
| 20260505040712 | 15 | 227 | 4.8 | 11.3 | 0.00 | 0.00 | 0.00 | 57 | 1008.2 |
| 20260505040211 | 15 | 139 | 4.8 | 11.3 | 0.00 | 0.00 | 0.00 | 56 | 1008.2 |
| 20260505035710 | 15 | 229 | 6.4 | 12.9 | 0.00 | 0.00 | 0.00 | 56 | 1008.2 |
| 20260505035212 | 15 | 158 | 6.4 | 12.9 | 0.00 | 0.00 | 0.00 | 55 | 1008.2 |
| 20260505034712 | 15 | 219 | 4.8 | 11.3 | 0.00 | 0.00 | 0.00 | 55 | 1008.1 |
| 20260505034213 | 15 | 167 | 4.8 | 12.9 | 0.00 | 0.00 | 0.00 | 55 | 1008.2 |
| 20260505033709 | 15 | 172 | 6.4 | 14.5 | 0.00 | 0.00 | 0.00 | 54 | 1008.2 |
| 20260505033208 | 15 | 176 | 6.4 | 14.5 | 0.00 | 0.00 | 0.00 | 54 | 1008.1 |
| 20260505032208 | 15 | 205 | 4.8 | 11.3 | 0.00 | 0.00 | 0.00 | 54 | 1008.0 |
| 20260505031708 | 15 | 136 | 4.8 | 14.5 | 0.00 | 0.00 | 0.00 | 53 | 1008.1 |
| 20260505030211 | 15 | 185 | 6.4 | 14.5 | 0.00 | 0.00 | 0.00 | 52 | 1008.0 |
| 20260505025712 | 16 | 188 | 6.4 | 14.5 | 0.00 | 0.00 | 0.00 | 52 | 1008.0 |
| 20260505025207 | 16 | 190 | 4.8 | 12.9 | 0.00 | 0.00 | 0.00 | 51 | 1008.0 |
| 20260505024707 | 16 | 172 | 4.8 | 16.1 | 0.00 | 0.00 | 0.00 | 51 | 1008.0 |
| 20260505024208 | 16 | 165 | 4.8 | 16.1 | 0.00 | 0.00 | 0.00 | 51 | 1007.9 |
| 20260505023706 | 16 | 239 | 4.8 | 12.9 | 0.00 | 0.00 | 0.00 | 51 | 1008.1 |
| 20260505023205 | 16 | 246 | 4.8 | 12.9 | 0.00 | 0.00 | 0.00 | 51 | 1008.1 |
| 20260505022705 | 16 | 160 | 6.4 | 16.1 | 0.00 | 0.00 | 0.00 | 50 | 1008.1 |
| 20260505022205 | 16 | 155 | 6.4 | 16.1 | 0.00 | 0.00 | 0.00 | 50 | 1008.1 |
| 20260505021709 | 16 | 205 | 6.4 | 17.7 | 0.00 | 0.00 | 0.00 | 50 | 1008.0 |
| 20260505021206 | 16 | 191 | 4.8 | 17.7 | 0.00 | 0.00 | 0.00 | 49 | 1008.0 |
| 20260505020703 | 16 | 153 | 3.2 | 8.0 | 0.00 | 0.00 | 0.00 | 49 | 1008.1 |
| 20260505014701 | 17 | 151 | 4.8 | 16.1 | 0.00 | 0.00 | 0.00 | 48 | 1007.9 |
| 20260505014200 | 17 | 70 | 4.8 | 16.1 | 0.00 | 0.00 | 0.00 | 47 | 1007.8 |
| 20260505013706 | 17 | 211 | 6.4 | 12.9 | 0.00 | 0.00 | 0.00 | 47 | 1007.7 |
| 20260505013201 | 17 | 182 | 6.4 | 14.5 | 0.00 | 0.00 | 0.00 | 47 | 1007.6 |
| 20260505012157 | 17 | 160 | 8.0 | 14.5 | 0.00 | 0.00 | 0.00 | 46 | 1007.4 |
| 20260505011657 | 17 | 198 | 6.4 | 14.5 | 0.00 | 0.00 | 0.00 | 46 | 1007.3 |
| 20260505011158 | 17 | 186 | 6.4 | 19.3 | 0.00 | 0.00 | 0.00 | 45 | 1007.2 |
| 20260505010705 | 17 | 210 | 6.4 | 19.3 | 0.00 | 0.00 | 0.00 | 45 | 1007.1 |
| 20260505010157 | 17 | 153 | 6.4 | 20.9 | 0.00 | 0.00 | 0.00 | 44 | 1006.9 |
| 20260505004656 | 18 | 213 | 9.7 | 20.9 | 0.00 | 0.00 | 0.00 | 43 | 1006.6 |
| 20260505004157 | 18 | 257 | 9.7 | 19.3 | 0.00 | 0.00 | 0.00 | 42 | 1006.4 |
| 20260505003656 | 18 | 207 | 9.7 | 22.5 | 0.00 | 0.00 | 0.00 | 42 | 1006.3 |
| 20260505003153 | 18 | 226 | 9.7 | 22.5 | 0.00 | 0.00 | 0.00 | 41 | 1006.2 |
| 20260505002653 | 18 | 125 | 8.0 | 20.9 | 0.00 | 0.00 | 0.00 | 41 | 1006.0 |
| 20260505001653 | 19 | 184 | 4.8 | 29.0 | 0.00 | 0.00 | 0.00 | 38 | 1005.6 |
| 20260505000653 | 20 | 224 | 1.6 | 11.3 | 0.00 | 0.00 | 0.00 | 34 | 1005.2 |
| 20260505000154 | 20 | 211 | 0.0 | 4.8 | 0.00 | 0.00 | 0.00 | 34 | 1005.2 |
| 20260504235653 | 20 | 225 | 1.6 | 6.4 | 0.00 | 0.00 | 0.00 | 34 | 1005.1 |
| 20260504235149 | 20 | 226 | 1.6 | 8.0 | 0.00 | 0.00 | 0.00 | 34 | 1005.1 |
| 20260504234648 | 20 | 266 | 1.6 | 8.0 | 0.00 | 0.00 | 0.00 | 34 | 1005.0 |
| 20260504234148 | 20 | 204 | 1.6 | 6.4 | 0.00 | 0.00 | 0.00 | 33 | 1005.0 |
| 20260504233149 | 21 | 161 | 3.2 | 16.1 | 0.00 | 0.00 | 0.00 | 33 | 1004.8 |
| 20260504231649 | 21 | 165 | 4.8 | 16.1 | 0.00 | 0.00 | 0.00 | 32 | 1004.7 |
| 20260504231151 | 21 | 222 | 1.6 | 11.3 | 0.00 | 0.00 | 0.00 | 32 | 1004.6 |
| 20260504230651 | 21 | 214 | 1.6 | 8.0 | 0.00 | 0.00 | 0.00 | 32 | 1004.5 |
| 20260504225649 | 21 | 221 | 4.8 | 16.1 | 0.00 | 0.00 | 0.00 | 31 | 1004.4 |
| 20260504225149 | 21 | 244 | 6.4 | 16.1 | 0.00 | 0.00 | 0.00 | 31 | 1004.4 |
| 20260504224650 | 21 | 206 | 6.4 | 16.1 | 0.00 | 0.00 | 0.00 | 31 | 1004.3 |
| 20260504224150 | 21 | 177 | 6.4 | 14.5 | 0.00 | 0.00 | 0.00 | 30 | 1004.3 |
| 20260504223650 | 22 | 229 | 6.4 | 16.1 | 0.00 | 0.00 | 0.00 | 30 | 1004.3 |
| 20260504223150 | 22 | 183 | 6.4 | 20.9 | 0.00 | 0.00 | 0.00 | 30 | 1004.2 |
| 20260504222649 | 22 | 221 | 8.0 | 22.5 | 0.00 | 0.00 | 0.00 | 29 | 1004.2 |
| 20260504222149 | 22 | 236 | 8.0 | 22.5 | 0.00 | 0.00 | 0.00 | 29 | 1004.2 |
| 20260504221702 | 22 | 238 | 6.4 | 20.9 | 0.00 | 0.00 | 0.00 | 29 | 1004.2 |
| 20260504221145 | 22 | 264 | 8.0 | 20.9 | 0.00 | 0.00 | 0.00 | 29 | 1004.2 |
| 20260504220647 | 22 | 167 | 6.4 | 20.9 | 0.00 | 0.00 | 0.00 | 29 | 1004.2 |
| 20260504220154 | 22 | 219 | 6.4 | 17.7 | 0.00 | 0.00 | 0.00 | 30 | 1004.2 |
| 20260504215635 | 22 | 210 | 8.0 | 17.7 | 0.00 | 0.00 | 0.00 | 29 | 1004.1 |
| 20260504215130 | 22 | 221 | 8.0 | 17.7 | 0.00 | 0.00 | 0.00 | 29 | 1004.0 |
| 20260504214118 | 22 | 215 | 8.0 | 17.7 | 0.00 | 0.00 | 0.00 | 29 | 1004.1 |
| 20260504213612 | 22 | 212 | 8.0 | 19.3 | 0.00 | 0.00 | 0.00 | 29 | 1004.2 |
| 20260504213104 | 22 | 293 | 9.7 | 30.6 | 0.00 | 0.00 | 0.00 | 29 | 1004.1 |
| 20260504212604 | 22 | 209 | 11.3 | 30.6 | 0.00 | 0.00 | 0.00 | 29 | 1004.1 |
| 20260504212106 | 22 | 174 | 8.0 | 30.6 | 0.00 | 0.00 | 0.00 | 30 | 1004.0 |
| 20260504211602 | 22 | 176 | 6.4 | 16.1 | 0.00 | 0.00 | 0.00 | 30 | 1004.1 |
| 20260504211104 | 22 | 226 | 8.0 | 25.7 | 0.00 | 0.00 | 0.00 | 29 | 1004.1 |
| 20260504210615 | 22 | 190 | 8.0 | 25.7 | 0.00 | 0.00 | 0.00 | 29 | 1004.1 |
| 20260504210115 | 22 | 165 | 8.0 | 22.5 | 0.00 | 0.00 | 0.00 | 28 | 1004.1 |
| 20260504205603 | 22 | 272 | 9.7 | 24.1 | 0.00 | 0.00 | 0.00 | 28 | 1004.1 |
| 20260504204605 | 22 | 224 | 9.7 | 22.5 | 0.00 | 0.00 | 0.00 | 29 | 1004.2 |
| 20260504204102 | 22 | 179 | 9.7 | 22.5 | 0.00 | 0.00 | 0.00 | 28 | 1004.2 |
| 20260504203605 | 22 | 252 | 8.0 | 22.5 | 0.00 | 0.00 | 0.00 | 28 | 1004.2 |
| 20260504202608 | 22 | 239 | 8.0 | 19.3 | 0.00 | 0.00 | 0.00 | 27 | 1004.1 |
| 20260504202106 | 22 | 200 | 6.4 | 19.3 | 0.00 | 0.00 | 0.00 | 28 | 1004.2 |
| 20260504201606 | 22 | 221 | 8.0 | 20.9 | 0.00 | 0.00 | 0.00 | 28 | 1004.1 |
| 20260504201056 | 22 | 228 | 11.3 | 25.7 | 0.00 | 0.00 | 0.00 | 27 | 1004.1 |
| 20260504200548 | 22 | 211 | 8.0 | 25.7 | 0.00 | 0.00 | 0.00 | 27 | 1004.2 |
| 20260504195536 | 22 | 275 | 9.7 | 27.4 | 0.00 | 0.00 | 0.00 | 28 | 1004.2 |
| 20260504195029 | 22 | 207 | 11.3 | 27.4 | 0.00 | 0.00 | 0.00 | 27 | 1004.2 |
| 20260504194524 | 22 | 214 | 9.7 | 24.1 | 0.00 | 0.00 | 0.00 | 27 | 1004.1 |
| 20260504194017 | 22 | 200 | 9.7 | 22.5 | 0.00 | 0.00 | 0.00 | 27 | 1004.2 |
| 20260504192500 | 22 | 168 | 9.7 | 29.0 | 0.00 | 0.00 | 0.00 | 27 | 1004.2 |
| 20260504191954 | 22 | 182 | 9.7 | 25.7 | 0.00 | 0.00 | 0.00 | 27 | 1004.2 |
| 20260504190942 | 22 | 210 | 9.7 | 38.6 | 0.00 | 0.00 | 0.00 | 27 | 1004.2 |
| 20260504190440 | 22 | 219 | 11.3 | 38.6 | 0.00 | 0.00 | 0.00 | 28 | 1004.4 |
| 20260504185937 | 22 | 275 | 11.3 | 30.6 | 0.00 | 0.00 | 0.00 | 27 | 1004.5 |
| 20260504185433 | 22 | 262 | 12.9 | 24.1 | 0.00 | 0.00 | 0.00 | 27 | 1004.4 |
| 20260504184932 | 22 | 274 | 12.9 | 24.1 | 0.00 | 0.00 | 0.00 | 27 | 1004.6 |
| 20260504183932 | 22 | 207 | 9.7 | 22.5 | 0.00 | 0.00 | 0.00 | 27 | 1004.6 |
| 20260504182931 | 22 | 206 | 8.0 | 24.1 | 0.00 | 0.00 | 0.00 | 28 | 1004.8 |
| 20260504181433 | 21 | 150 | 9.7 | 20.9 | 0.00 | 0.00 | 0.00 | 28 | 1004.7 |
| 20260504180930 | 21 | 207 | 9.7 | 22.5 | 0.00 | 0.00 | 0.00 | 29 | 1004.7 |
| 20260504180427 | 21 | 240 | 11.3 | 27.4 | 0.00 | 0.00 | 0.00 | 29 | 1004.9 |
| 20260504175929 | 21 | 243 | 11.3 | 27.4 | 0.00 | 0.00 | 0.00 | 28 | 1004.9 |
| 20260504175429 | 21 | 245 | 9.7 | 27.4 | 0.00 | 0.00 | 0.00 | 28 | 1005.0 |
| 20260504174429 | 21 | 226 | 11.3 | 33.8 | 0.00 | 0.00 | 0.00 | 29 | 1004.9 |
| 20260504173921 | 21 | 315 | 11.3 | 33.8 | 0.00 | 0.00 | 0.00 | 29 | 1005.0 |
| 20260504173423 | 21 | 274 | 11.3 | 22.5 | 0.00 | 0.00 | 0.00 | 28 | 1005.1 |
| 20260504172920 | 21 | 273 | 12.9 | 25.7 | 0.00 | 0.00 | 0.00 | 28 | 1005.2 |
| 20260504172421 | 20 | 233 | 14.5 | 29.0 | 0.00 | 0.00 | 0.00 | 29 | 1005.1 |
| 20260504171918 | 20 | 236 | 12.9 | 29.0 | 0.00 | 0.00 | 0.00 | 30 | 1005.2 |
| 20260504170918 | 20 | 219 | 14.5 | 37.0 | 0.00 | 0.00 | 0.00 | 30 | 1005.3 |
| 20260504160407 | 20 | 255 | 12.9 | 27.4 | 0.00 | 0.00 | 0.00 | 32 | 1005.5 |
| 20260504150745 | 18 | 262 | 11.3 | 24.1 | 0.00 | 0.00 | 0.00 | 35 | 1006.4 |
| 20260504150241 | 18 | 236 | 9.7 | 24.1 | 0.00 | 0.00 | 0.00 | 35 | 1006.6 |
| 20260504141140 | 17 | 255 | 9.7 | 22.5 | 0.00 | 0.00 | 0.00 | 37 | 1007.1 |
| 20260504140633 | 17 | 150 | 11.3 | 25.7 | 0.00 | 0.00 | 0.00 | 40 | 1007.0 |
| 20260504130541 | 15 | 267 | 8.0 | 14.5 | 0.00 | 0.00 | 0.00 | 44 | 1007.7 |
| 20260504110432 | 8 | 176 | 1.6 | 8.0 | 0.00 | 0.00 | 0.00 | 59 | 1008.6 |
| 20260504100320 | 7 | 220 | 1.6 | 8.0 | 0.00 | 0.00 | 0.00 | 60 | 1008.6 |
| 20260504081733 | 7 | 191 | 1.6 | 6.4 | 0.00 | 0.00 | 0.00 | 56 | 1008.4 |
| 20260504081234 | 7 | 225 | 1.6 | 6.4 | 0.00 | 0.00 | 0.00 | 56 | 1008.4 |
| 20260504080732 | 7 | 213 | 1.6 | 6.4 | 0.00 | 0.00 | 0.00 | 56 | 1008.4 |
| 20260504080231 | 7 | 213 | 0.0 | 3.2 | 0.00 | 0.00 | 0.00 | 56 | 1008.4 |
| 20260504070227 | 6 | 211 | 1.6 | 6.4 | 0.00 | 0.00 | 0.00 | 60 | 1008.3 |
| 20260504060218 | 6 | 208 | 1.6 | 4.8 | 0.00 | 0.00 | 0.00 | 63 | 1008.4 |